Location: Linz
(48.3300°N, 14.3000°E)
Time: 02:49:28
(UTC+01:00)

N. Korean satellite - Pass Details

Date: 16 November 2017
Orbit: 460 x 515 km, 97.2° (Epoch: 18 November)

Event Time Altitude Azimuth Distance (km) Brightness Sun altitude
Rises 17:43:13 0° 159° (SSE) 2,483 10.1 -13.3°
Reaches altitude 10° 17:45:15 10° 156° (SSE) 1,618 9.1 -13.6°
Maximum altitude 17:48:42 65° 74° (ENE) 521 6.4 -14.2°
Drops below altitude 10° 17:52:13 10° 353° (N) 1,657 9.2 -14.7°
Sets 17:54:18 0° 350° (N) 2,550 10.2 -15.1°
